SCP
0 0 0 0 0 0 0 0 0 -0 -0 0 0 0 0 0 0 0 0 0 0 0 0 0 0 0 0 1 0 2 1 1
0 -0 -0 0 0 0 0 0 0 0 0 0 0 0 0 0 0 0 0 0 0 0 0 0 0 0 0 0 2 2 2 2
0 -0 0 0 0 0 0 0 0 0 0 0 0 0 0 0 0 0 0 0 0 0 0 0 0 0 0 1 1 2 3 3
0 0 0 0 0 0 0 0 0 0 0 0 0 0 0 0 0 0 0 0 0 0 0 0 0 0 0 2 4 4 2 3
0 0 0 0 0 0 0 0 0 0 0 0 0 0 0 0 0 0 0 0 0 0 0 0 0 0 0 1 3 5 4 3
0 0 0 0 0 0 0 0 0 0 0 0 0 0 0 0 0 0 0 0 0 0 0 0 0 0 1 1 1 3 5 4
0 0 0 0 0 0 0 0 0 0 0 0 0 0 0 0 0 0 0 0 0 0 0 0 0 0 0 1 1 1 3 5
0 0 0 0 0 0 0 0 0 0 0 0 0 0 0 0 0 0 0 0 0 0 0 0 0 0 0 0 1 1 1 5
0 0 0 0 0 0 0 0 0 0 0 0 0 0 0 0 0 0 0 0 1 0 0 0 -0 0 0 0 0 1 0 1
0 0 0 0 0 0 0 0 0 0 0 0 0 0 0 0 0 -0 0 0 0 0 0 0 -0 0 0 0 0 0 1 0
0 0 0 0 0 0 0 0 0 0 0 0 0 0 0 0 0 0 0 0 0 0 0 0 -0 -0 0 0 0 0 0 1
0 0 0 0 0 0 0 0 0 0 0 0 0 0 0 0 0 0 0 0 0 0 -0 0 0 0 -0 0 0 0 0 1
0 0 0 0 0 0 0 0 0 0 0 0 0 0 0 0 0 0 0 0 0 0 0 0 0 -0 -0 0 0 0 0 1
0 0 0 0 0 0 0 0 0 0 0 0 0 0 0 0 0 0 0 0 0 0 0 0 0 0 0 0 0 0 0 0
0 0 0 0 0 0 0 0 0 0 0 0 0 0 0 0 0 0 0 0 0 0 0 0 0 0 0 0 0 0 0 0
0 0 0 0 0 0 0 0 0 0 0 0 0 0 0 0 0 0 0 0 0 0 0 0 -0 -0 0 0 0 0 0 0
0 0 0 0 -0 1 0 0 0 0 0 0 0 0 0 0 0 0 0 0 0 0 0 0 0 0 0 0 0 0 0 0
0 0 0 0 0 1 0 0 0 0 0 0 0 0 0 0 0 0 0 0 0 0 0 0 0 0 0 0 0 0 0 0
0 -0 0 0 1 1 0 0 0 0 0 -0 -0 0 0 0 0 0 0 0 0 0 0 0 0 0 0 0 0 0 0 0
Wind_Speed_500mb
2 6 12 12 7 27 18 26 19 14 40 33 37 32 33 33 32 29 24 28 29 30 34 22 11 13 56 64 72 73 70 62
25 4 18 16 22 14 10 8 13 21 16 9 39 32 26 28 33 26 24 26 24 26 31 29 31 35 27 55 73 81 77 73
4 18 17 13 14 12 20 16 20 19 14 34 33 28 21 29 30 26 21 21 24 25 30 32 37 43 46 41 45 87 82 77
22 10 8 14 23 24 18 15 17 19 22 34 29 26 16 22 18 16 18 21 23 24 29 35 41 48 54 42 38 78 83 81
24 26 20 5 10 18 21 25 30 23 10 27 21 9 30 21 18 14 15 19 23 33 30 34 45 56 64 52 27 24 76 82
21 34 27 20 24 20 21 18 23 26 33 31 21 33 42 40 27 15 13 18 23 32 29 37 46 55 63 66 41 27 22 76
25 31 31 32 31 32 32 32 32 33 41 41 39 34 41 45 51 43 32 34 33 32 30 36 43 46 54 62 60 46 29 13
24 30 32 33 29 28 33 34 35 37 39 35 39 40 43 41 42 45 49 56 59 31 29 37 41 52 57 52 60 56 53 39
27 29 31 25 21 20 23 15 22 23 34 46 40 42 37 42 44 46 49 35 37 35 37 40 45 50 55 61 54 58 58 56
20 23 26 21 14 14 19 21 31 37 39 41 45 48 47 41 43 51 30 36 44 47 50 49 48 54 59 64 67 55 60 60
17 22 26 21 31 18 16 18 23 24 31 43 51 54 51 48 44 57 51 48 51 53 54 59 54 55 62 63 64 65 57 60
18 21 23 17 23 17 14 18 25 30 35 45 52 28 26 67 75 76 73 68 63 55 59 53 56 61 74 57 61 68 57 63
19 23 11 20 25 28 17 18 40 42 45 54 37 48 75 79 76 73 76 69 66 70 53 47 52 65 68 64 70 64 64 65
21 24 9 26 22 19 21 36 44 48 52 58 61 67 69 69 66 66 63 63 55 52 44 38 47 60 65 72 71 70 60 65
10 16 26 24 21 11 17 26 34 37 41 44 46 57 66 66 59 54 55 46 35 28 31 42 60 63 76 77 71 60 50 59
14 15 32 39 34 21 20 21 27 29 33 36 37 43 46 43 45 39 35 23 27 40 44 49 59 64 59 61 67 49 45 42
19 5 12 6 51 17 16 20 26 24 28 34 38 39 40 37 36 35 27 25 19 29 32 34 40 38 34 41 46 40 39 36
19 13 21 27 19 15 17 20 19 26 34 24 36 36 35 48 50 50 42 36 36 36 38 33 34 31 29 30 24 38 32 32
10 55 18 24 10 16 17 16 12 27 31 26 42 34 26 37 43 48 57 63 55 53 53 54 42 56 55 41 40 24 20 13
Wind_Direction_500mb
50 1 312 21 287 342 313 289 275 276 109 127 128 126 117 103 86 64 45 42 28 11 21 34 300 298 220 218 232 231 235 237
117 247 237 251 329 308 234 281 268 277 258 290 149 136 112 89 78 55 28 25 17 358 349 353 340 326 293 236 229 233 231 234
73 244 262 176 239 211 263 287 305 302 82 62 93 109 102 74 59 38 18 10 3 348 346 336 332 331 315 314 308 227 227 230
271 115 59 307 303 303 294 288 261 270 289 109 115 118 113 89 78 38 354 356 359 347 342 337 332 328 328 321 352 217 227 223
245 234 174 246 309 282 264 277 275 290 276 110 106 116 54 43 12 21 357 350 345 352 341 342 341 334 323 324 331 5 227 224
295 319 324 314 302 302 289 287 288 272 274 281 6 2 349 344 340 359 349 333 335 340 350 342 334 337 334 324 314 313 20 224
307 309 307 302 295 293 285 283 280 286 297 315 329 336 25 14 10 5 350 337 323 328 337 331 328 324 331 321 321 309 291 254
281 279 273 276 267 268 276 283 285 288 289 300 327 359 5 357 351 344 333 328 322 324 332 332 327 320 319 316 319 310 293 283
288 304 301 280 272 278 308 301 322 323 358 349 348 347 344 335 337 325 311 330 346 338 328 318 318 314 311 310 311 306 295 282
280 280 268 272 12 330 319 335 360 340 333 342 346 333 324 323 316 311 323 321 321 319 316 314 311 309 308 308 308 298 297 284
287 275 289 320 49 36 14 320 344 359 342 332 329 323 310 305 321 325 319 309 305 306 308 305 304 306 298 308 303 299 291 292
285 300 291 62 44 17 341 283 11 342 332 332 329 311 312 328 321 315 310 302 297 292 294 297 305 300 303 300 300 296 293 294
263 263 259 24 2 338 280 355 356 345 333 326 323 317 311 311 306 298 300 303 306 291 281 286 299 298 301 297 288 284 280 282
287 280 272 350 334 342 360 342 340 341 336 326 320 315 310 307 305 302 297 300 294 296 293 292 295 293 292 292 291 292 277 278
331 322 328 305 329 6 9 353 350 345 340 340 339 329 323 319 314 316 309 302 303 309 293 278 283 291 294 289 287 293 277 280
266 310 8 341 331 9 18 4 357 356 348 357 349 345 348 331 324 322 324 322 309 301 301 305 308 304 292 292 290 282 267 279
271 46 355 264 278 40 26 23 14 10 12 356 358 357 358 358 353 352 349 345 330 344 335 332 319 302 302 297 291 269 263 255
318 8 343 348 3 53 46 39 41 7 357 9 17 17 25 38 31 25 23 16 24 11 9 5 353 3 6 4 288 264 247 231
10 277 324 315 111 90 80 86 27 30 33 47 50 32 22 42 26 24 18 18 19 22 20 24 10 14 29 38 64 188 188 143
Wind_Speed_850mb
2 6 12 12 7 27 18 26 19 14 40 33 37 32 33 33 32 29 24 28 29 30 34 22 11 13 56 64 72 73 70 62
25 4 18 16 22 14 10 8 13 21 16 9 39 32 26 28 33 26 24 26 24 26 31 29 31 35 27 55 73 81 77 73
4 18 17 13 14 12 20 16 20 19 14 34 33 28 21 29 30 26 21 21 24 25 30 32 37 43 46 41 45 87 82 77
22 10 8 14 23 24 18 15 17 19 22 34 29 26 16 22 18 16 18 21 23 24 29 35 41 48 54 42 38 78 83 81
24 26 20 5 10 18 21 25 30 23 10 27 21 9 30 21 18 14 15 19 23 33 30 34 45 56 64 52 27 24 76 82
21 34 27 20 24 20 21 18 23 26 33 31 21 33 42 40 27 15 13 18 23 32 29 37 46 55 63 66 41 27 22 76
25 31 31 32 31 32 32 32 32 33 41 41 39 34 41 45 51 43 32 34 33 32 30 36 43 46 54 62 60 46 29 13
24 30 32 33 29 28 33 34 35 37 39 35 39 40 43 41 42 45 49 56 59 31 29 37 41 52 57 52 60 56 53 39
27 29 31 25 21 20 23 15 22 23 34 46 40 42 37 42 44 46 49 35 37 35 37 40 45 50 55 61 54 58 58 56
20 23 26 21 14 14 19 21 31 37 39 41 45 48 47 41 43 51 30 36 44 47 50 49 48 54 59 64 67 55 60 60
17 22 26 21 31 18 16 18 23 24 31 43 51 54 51 48 44 57 51 48 51 53 54 59 54 55 62 63 64 65 57 60
18 21 23 17 23 17 14 18 25 30 35 45 52 28 26 67 75 76 73 68 63 55 59 53 56 61 74 57 61 68 57 63
19 23 11 20 25 28 17 18 40 42 45 54 37 48 75 79 76 73 76 69 66 70 53 47 52 65 68 64 70 64 64 65
21 24 9 26 22 19 21 36 44 48 52 58 61 67 69 69 66 66 63 63 55 52 44 38 47 60 65 72 71 70 60 65
10 16 26 24 21 11 17 26 34 37 41 44 46 57 66 66 59 54 55 46 35 28 31 42 60 63 76 77 71 60 50 59
14 15 32 39 34 21 20 21 27 29 33 36 37 43 46 43 45 39 35 23 27 40 44 49 59 64 59 61 67 49 45 42
19 5 12 6 51 17 16 20 26 24 28 34 38 39 40 37 36 35 27 25 19 29 32 34 40 38 34 41 46 40 39 36
19 13 21 27 19 15 17 20 19 26 34 24 36 36 35 48 50 50 42 36 36 36 38 33 34 31 29 30 24 38 32 32
10 55 18 24 10 16 17 16 12 27 31 26 42 34 26 37 43 48 57 63 55 53 53 54 42 56 55 41 40 24 20 13
Wind_Direction_850mb
50 1 312 21 287 342 313 289 275 276 109 127 128 126 117 103 86 64 45 42 28 11 21 34 300 298 220 218 232 231 235 237
117 247 237 251 329 308 234 281 268 277 258 290 149 136 112 89 78 55 28 25 17 358 349 353 340 326 293 236 229 233 231 234
73 244 262 176 239 211 263 287 305 302 82 62 93 109 102 74 59 38 18 10 3 348 346 336 332 331 315 314 308 227 227 230
271 115 59 307 303 303 294 288 261 270 289 109 115 118 113 89 78 38 354 356 359 347 342 337 332 328 328 321 352 217 227 223
245 234 174 246 309 282 264 277 275 290 276 110 106 116 54 43 12 21 357 350 345 352 341 342 341 334 323 324 331 5 227 224
295 319 324 314 302 302 289 287 288 272 274 281 6 2 349 344 340 359 349 333 335 340 350 342 334 337 334 324 314 313 20 224
307 309 307 302 295 293 285 283 280 286 297 315 329 336 25 14 10 5 350 337 323 328 337 331 328 324 331 321 321 309 291 254
281 279 273 276 267 268 276 283 285 288 289 300 327 359 5 357 351 344 333 328 322 324 332 332 327 320 319 316 319 310 293 283
288 304 301 280 272 278 308 301 322 323 358 349 348 347 344 335 337 325 311 330 346 338 328 318 318 314 311 310 311 306 295 282
280 280 268 272 12 330 319 335 360 340 333 342 346 333 324 323 316 311 323 321 321 319 316 314 311 309 308 308 308 298 297 284
287 275 289 320 49 36 14 320 344 359 342 332 329 323 310 305 321 325 319 309 305 306 308 305 304 306 298 308 303 299 291 292
285 300 291 62 44 17 341 283 11 342 332 332 329 311 312 328 321 315 310 302 297 292 294 297 305 300 303 300 300 296 293 294
263 263 259 24 2 338 280 355 356 345 333 326 323 317 311 311 306 298 300 303 306 291 281 286 299 298 301 297 288 284 280 282
287 280 272 350 334 342 360 342 340 341 336 326 320 315 310 307 305 302 297 300 294 296 293 292 295 293 292 292 291 292 277 278
331 322 328 305 329 6 9 353 350 345 340 340 339 329 323 319 314 316 309 302 303 309 293 278 283 291 294 289 287 293 277 280
266 310 8 341 331 9 18 4 357 356 348 357 349 345 348 331 324 322 324 322 309 301 301 305 308 304 292 292 290 282 267 279
271 46 355 264 278 40 26 23 14 10 12 356 358 357 358 358 353 352 349 345 330 344 335 332 319 302 302 297 291 269 263 255
318 8 343 348 3 53 46 39 41 7 357 9 17 17 25 38 31 25 23 16 24 11 9 5 353 3 6 4 288 264 247 231
10 277 324 315 111 90 80 86 27 30 33 47 50 32 22 42 26 24 18 18 19 22 20 24 10 14 29 38 64 188 188 143